When you browse on this site, cookies collect data to enhance your experience and personalize the content and advertising you see.
Visit our Privacy Policy to learn more. By continuing to use the site, you agree to this use of cookies and data.
  • In Hungary
  • List of Countries
  • For 7 days
  • Water Temperature
  • Satellite Maps
  • Weather Map
  • News
  • Weather Widgets
  • user-avatar
    Login

    Hourly Weather Trianta

    Today, 17 June, Monday

    Time Temperature Precipitation Wind Pressure Humidity
    00:00 +21°C° 0 mm 1 mps 702 mmHg 74%
    01:00 +21°C° 0 mm 1 mps 702 mmHg 76%
    02:00 +20°C° 0 mm 1 mps 702 mmHg 77%
    03:00 +20°C° 0 mm 1 mps 702 mmHg 77%
    04:00 +20°C° 0 mm 1 mps 702 mmHg 77%
    05:00 +22°C° 0 mm 1 mps 702 mmHg 70%
    06:00 +24°C° 0 mm 1 mps 703 mmHg 62%
    07:00 +25°C° 0 mm 0 mps 704 mmHg 52%
    08:00 +28°C° 0 mm 1 mps 704 mmHg 47%
    09:00 +29°C° 0 mm 1 mps 704 mmHg 43%
    10:00 +30°C° 0 mm 2 mps 704 mmHg 39%
    11:00 +30°C° 0 mm 2 mps 704 mmHg 42%
    12:00 +29°C° 0 mm 2 mps 704 mmHg 46%
    13:00 +28°C° 0 mm 3 mps 704 mmHg 50%
    14:00 +26°C° 1.4 mm 3 mps 703 mmHg 57%
    15:00 +24°C° 1.4 mm 2 mps 703 mmHg 65%
    16:00 +21°C° 1.4 mm 2 mps 703 mmHg 72%
    17:00 +21°C° 0.1 mm 2 mps 703 mmHg 73%
    18:00 +20°C° 0.1 mm 2 mps 703 mmHg 74%
    19:00 +20°C° 0.1 mm 1 mps 703 mmHg 75%
    20:00 +20°C° 0 mm 1 mps 703 mmHg 74%
    21:00 +20°C° 0 mm 1 mps 703 mmHg 74%
    22:00 +20°C° 0 mm 1 mps 703 mmHg 74%
    23:00 +20°C° 0 mm 1 mps 703 mmHg 73%

    Tomorrow, 18 June, Tuesday

    Time Temperature Precipitation Wind Pressure Humidity
    00:00 +19°C° 0 mm 1 mps 703 mmHg 72%
    01:00 +19°C° 0 mm 1 mps 703 mmHg 71%
    02:00 +19°C° 0 mm 1 mps 703 mmHg 70%
    03:00 +19°C° 0 mm 1 mps 703 mmHg 69%
    04:00 +19°C° 0 mm 1 mps 703 mmHg 67%
    05:00 +21°C° 0 mm 1 mps 703 mmHg 62%
    06:00 +23°C° 0 mm 1 mps 704 mmHg 56%
    07:00 +23°C° 0 mm 0 mps 704 mmHg 50%
    08:00 +27°C° 0 mm 1 mps 704 mmHg 46%
    09:00 +29°C° 0 mm 1 mps 705 mmHg 41%
    10:00 +30°C° 0 mm 2 mps 705 mmHg 36%
    11:00 +30°C° 0 mm 2 mps 705 mmHg 38%
    12:00 +30°C° 0 mm 3 mps 705 mmHg 40%
    13:00 +29°C° 0 mm 3 mps 705 mmHg 42%
    14:00 +29°C° 0 mm 3 mps 704 mmHg 45%
    15:00 +28°C° 0 mm 3 mps 704 mmHg 48%
    16:00 +27°C° 0 mm 3 mps 704 mmHg 50%
    17:00 +25°C° 0 mm 2 mps 704 mmHg 58%
    18:00 +24°C° 0 mm 1 mps 704 mmHg 65%
    19:00 +20°C° 0 mm 0 mps 703 mmHg 73%
    20:00 +19°C° 0 mm 0 mps 703 mmHg 74%
    21:00 +19°C° 0 mm 0 mps 704 mmHg 75%
    22:00 +18°C° 0 mm 0 mps 704 mmHg 77%
    23:00 +18°C° 0 mm 0 mps 703 mmHg 77%

    Day after tomorrow, 19 June, Wednesday

    Time Temperature Precipitation Wind Pressure Humidity
    00:00 +20°C° 0 mm 1 mps 703 mmHg 78%
    01:00 +19°C° 0 mm 1 mps 703 mmHg 78%
    02:00 +19°C° 0 mm 1 mps 702 mmHg 77%
    03:00 +19°C° 0 mm 1 mps 702 mmHg 77%
    04:00 +19°C° 0 mm 1 mps 702 mmHg 76%
    05:00 +21°C° 0 mm 1 mps 702 mmHg 69%
    06:00 +23°C° 0 mm 1 mps 703 mmHg 61%
    07:00 +25°C° 0 mm 1 mps 704 mmHg 53%
    08:00 +26°C° 0 mm 1 mps 704 mmHg 49%
    09:00 +28°C° 0 mm 1 mps 704 mmHg 45%
    10:00 +29°C° 0 mm 2 mps 704 mmHg 41%
    11:00 +29°C° 0 mm 3 mps 704 mmHg 41%
    12:00 +29°C° 0 mm 3 mps 704 mmHg 42%
    13:00 +29°C° 0 mm 4 mps 704 mmHg 43%
    14:00 +28°C° 0 mm 4 mps 704 mmHg 46%
    15:00 +27°C° 0 mm 4 mps 703 mmHg 49%
    16:00 +26°C° 0 mm 4 mps 703 mmHg 53%
    17:00 +25°C° 0 mm 3 mps 703 mmHg 62%
    18:00 +23°C° 0 mm 2 mps 703 mmHg 71%
    19:00 +21°C° 0 mm 1 mps 702 mmHg 80%
    20:00 +20°C° 0 mm 1 mps 702 mmHg 83%
    21:00 +20°C° 0 mm 1 mps 702 mmHg 85%
    22:00 +19°C° 0 mm 1 mps 702 mmHg 88%
    23:00 +19°C° 0 mm 1 mps 702 mmHg 87%

    20 June, Thursday

    Time Temperature Precipitation Wind Pressure Humidity
    00:00 +19°C° 0 mm 1 mps 702 mmHg 86%
    01:00 +18°C° 0 mm 1 mps 702 mmHg 84%
    02:00 +18°C° 0 mm 1 mps 702 mmHg 83%
    03:00 +18°C° 0 mm 1 mps 702 mmHg 82%
    04:00 +18°C° 0 mm 1 mps 701 mmHg 80%
    05:00 +20°C° 0 mm 1 mps 702 mmHg 72%
    06:00 +22°C° 0 mm 1 mps 703 mmHg 63%
    07:00 +25°C° 0 mm 1 mps 703 mmHg 54%
    08:00 +26°C° 0 mm 2 mps 703 mmHg 50%
    09:00 +28°C° 0 mm 2 mps 704 mmHg 46%
    10:00 +29°C° 0 mm 3 mps 704 mmHg 42%
    11:00 +29°C° 0.1 mm 3 mps 704 mmHg 44%
    12:00 +28°C° 0.1 mm 4 mps 703 mmHg 45%
    13:00 +28°C° 0.1 mm 4 mps 703 mmHg 47%
    14:00 +27°C° 0.1 mm 4 mps 703 mmHg 48%
    15:00 +27°C° 0.1 mm 4 mps 703 mmHg 50%
    16:00 +26°C° 0.1 mm 3 mps 703 mmHg 52%
    17:00 +24°C° 0 mm 3 mps 703 mmHg 61%
    18:00 +23°C° 0 mm 2 mps 702 mmHg 71%
    19:00 +21°C° 0 mm 1 mps 702 mmHg 81%
    20:00 +20°C° 0 mm 1 mps 702 mmHg 82%
    21:00 +20°C° 0 mm 1 mps 703 mmHg 83%
    22:00 +19°C° 0 mm 1 mps 703 mmHg 85%
    23:00 +19°C° 0 mm 1 mps 702 mmHg 83%

    21 June, Friday

    Time Temperature Precipitation Wind Pressure Humidity
    00:00 +19°C° 0 mm 1 mps 702 mmHg 80%
    01:00 +19°C° 0 mm 1 mps 702 mmHg 78%
    02:00 +19°C° 0 mm 1 mps 702 mmHg 78%
    03:00 +19°C° 0 mm 1 mps 702 mmHg 78%
    04:00 +19°C° 0 mm 1 mps 702 mmHg 77%
    05:00 +21°C° 0 mm 1 mps 703 mmHg 69%
    06:00 +23°C° 0 mm 1 mps 703 mmHg 61%
    07:00 +25°C° 0 mm 1 mps 704 mmHg 53%
    08:00 +27°C° 0 mm 2 mps 704 mmHg 50%
    09:00 +28°C° 0 mm 2 mps 704 mmHg 47%
    10:00 +30°C° 0 mm 2 mps 704 mmHg 44%
    11:00 +29°C° 0.1 mm 3 mps 704 mmHg 46%
    12:00 +29°C° 0.1 mm 3 mps 704 mmHg 48%
    13:00 +28°C° 0.1 mm 3 mps 704 mmHg 50%
    14:00 +27°C° 0.4 mm 2 mps 704 mmHg 54%
    15:00 +27°C° 0.4 mm 2 mps 703 mmHg 58%
    16:00 +26°C° 0.4 mm 1 mps 703 mmHg 62%
    17:00 +24°C° 0.1 mm 1 mps 703 mmHg 67%
    18:00 +23°C° 0.1 mm 1 mps 703 mmHg 73%
    19:00 +22°C° 0.1 mm 1 mps 703 mmHg 78%
    20:00 +22°C° 0 mm 1 mps 703 mmHg 78%
    21:00 +21°C° 0 mm 1 mps 703 mmHg 77%
    22:00 +21°C° 0 mm 1 mps 704 mmHg 77%
    23:00 +21°C° 0 mm 1 mps 703 mmHg 76%

    22 June, Saturday

    Time Temperature Precipitation Wind Pressure Humidity
    00:00 +21°C° 0 mm 1 mps 703 mmHg 75%
    01:00 +21°C° 0 mm 1 mps 703 mmHg 75%
    02:00 +21°C° 0 mm 1 mps 703 mmHg 74%
    03:00 +20°C° 0 mm 1 mps 703 mmHg 73%
    04:00 +20°C° 0 mm 1 mps 703 mmHg 72%
    05:00 +22°C° 0 mm 1 mps 703 mmHg 65%
    06:00 +25°C° 0 mm 1 mps 704 mmHg 57%
    07:00 +27°C° 0 mm 1 mps 705 mmHg 50%
    08:00 +28°C° 0 mm 1 mps 705 mmHg 45%
    09:00 +30°C° 0 mm 1 mps 705 mmHg 40%
    10:00 +32°C° 0 mm 2 mps 706 mmHg 34%
    11:00 +32°C° 0 mm 2 mps 706 mmHg 35%
    12:00 +32°C° 0 mm 2 mps 706 mmHg 36%
    13:00 +31°C° 0 mm 3 mps 706 mmHg 36%
    14:00 +31°C° 0 mm 3 mps 705 mmHg 39%
    15:00 +30°C° 0 mm 3 mps 705 mmHg 41%
    16:00 +29°C° 0 mm 3 mps 705 mmHg 44%
    17:00 +27°C° 0 mm 2 mps 705 mmHg 51%
    18:00 +25°C° 0 mm 1 mps 704 mmHg 58%
    19:00 +22°C° 0 mm 0 mps 704 mmHg 65%
    20:00 +21°C° 0 mm 0 mps 705 mmHg 65%
    21:00 +21°C° 0 mm 0 mps 705 mmHg 65%
    22:00 +21°C° 0 mm 0 mps 705 mmHg 65%
    23:00 +22°C° 0 mm 1 mps 705 mmHg 66%
    Show more